Time,TemperatureF,DewpointF,PressureIn,WindDirection,WindDirectionDegrees,WindSpeedMPH,WindSpeedGustMPH,Humidity,HourlyPrecipIn,Conditions,Clouds,dailyrainin,SolarRadiationWatts/m^2,SoftwareType,DateUTC
2013-05-12 00:00:00,47.5,31.0,30.07,WSW,250,0.0,7.0,54,0.00,,,0.00,0,weatherlink.com 1.10,2013-05-12 04:00:00,
2013-05-12 00:15:00,46.9,31.0,30.07,NNE,14,0.0,6.0,55,0.00,,,0.00,0,weatherlink.com 1.10,2013-05-12 04:15:00,
2013-05-12 00:30:00,46.5,31.0,30.07,WSW,247,0.0,9.0,56,0.00,,,0.00,0,weatherlink.com 1.10,2013-05-12 04:30:00,
2013-05-12 00:45:00,46.0,31.0,30.07,NW,316,0.0,8.0,56,0.00,,,0.00,0,weatherlink.com 1.10,2013-05-12 04:45:00,
2013-05-12 01:00:00,45.4,31.0,30.08,SSW,209,1.0,5.0,58,0.00,,,0.00,0,weatherlink.com 1.10,2013-05-12 05:00:00,
2013-05-12 01:16:00,45.0,31.0,30.08,NW,305,0.0,2.0,59,0.00,,,0.00,0,weatherlink.com 1.10,2013-05-12 05:16:00,
2013-05-12 01:31:00,44.1,31.0,30.08,NW,304,0.0,2.0,61,0.00,,,0.00,0,weatherlink.com 1.10,2013-05-12 05:31:00,
2013-05-12 01:46:00,43.4,31.0,30.09,NW,304,0.0,1.0,63,0.00,,,0.00,0,weatherlink.com 1.10,2013-05-12 05:46:00,
2013-05-12 02:01:00,42.5,32.0,30.09,SW,235,0.0,4.0,67,0.00,,,0.00,0,weatherlink.com 1.10,2013-05-12 06:01:00,
2013-05-12 02:16:00,42.0,32.0,30.09,West,273,0.0,1.0,67,0.00,,,0.00,0,weatherlink.com 1.10,2013-05-12 06:16:00,
2013-05-12 02:31:00,41.7,31.0,30.09,NNW,330,1.0,4.0,67,0.00,,,0.00,0,weatherlink.com 1.10,2013-05-12 06:31:00,
2013-05-12 02:46:00,41.7,32.0,30.09,West,260,0.0,5.0,68,0.00,,,0.00,0,weatherlink.com 1.10,2013-05-12 06:46:00,
2013-05-12 03:01:00,41.3,32.0,30.09,NW,308,2.0,2.0,69,0.00,,,0.00,0,weatherlink.com 1.10,2013-05-12 07:01:00,
2013-05-12 03:16:00,41.0,32.0,30.08,WNW,288,0.0,2.0,69,0.00,,,0.00,0,weatherlink.com 1.10,2013-05-12 07:16:00,
2013-05-12 03:31:00,40.6,32.0,30.09,WNW,288,1.0,2.0,71,0.00,,,0.00,0,weatherlink.com 1.10,2013-05-12 07:31:00,
2013-05-12 03:46:00,40.1,32.0,30.09,WNW,288,0.0,1.0,72,0.00,,,0.00,0,weatherlink.com 1.10,2013-05-12 07:46:00,
2013-05-12 04:01:00,39.7,32.0,30.08,WNW,300,0.0,4.0,73,0.00,,,0.00,0,weatherlink.com 1.10,2013-05-12 08:01:00,
2013-05-12 04:16:00,39.0,32.0,30.08,WNW,300,0.0,1.0,76,0.00,,,0.00,0,weatherlink.com 1.10,2013-05-12 08:16:00,
2013-05-12 04:31:00,38.6,32.0,30.08,WNW,284,0.0,4.0,76,0.00,,,0.00,0,weatherlink.com 1.10,2013-05-12 08:31:00,
2013-05-12 04:46:00,37.9,32.0,30.08,WNW,284,0.0,2.0,78,0.00,,,0.00,0,weatherlink.com 1.10,2013-05-12 08:46:00,
2013-05-12 05:01:00,37.5,32.0,30.09,WNW,284,0.0,1.0,81,0.00,,,0.00,0,weatherlink.com 1.10,2013-05-12 09:01:00,
2013-05-12 05:16:00,37.3,31.0,30.09,West,281,0.0,1.0,79,0.00,,,0.00,0,weatherlink.com 1.10,2013-05-12 09:16:00,
2013-05-12 05:31:00,37.0,32.0,30.09,West,281,0.0,1.0,81,0.00,,,0.00,0,weatherlink.com 1.10,2013-05-12 09:31:00,
2013-05-12 05:46:00,36.8,32.0,30.09,West,259,1.0,3.0,81,0.00,,,0.00,0,weatherlink.com 1.10,2013-05-12 09:46:00,
2013-05-12 06:01:00,37.4,31.0,30.09,West,263,0.0,2.0,79,0.00,,,0.00,0,weatherlink.com 1.10,2013-05-12 10:01:00,
2013-05-12 06:16:00,36.8,32.0,30.09,NW,324,0.0,2.0,81,0.00,,,0.00,0,weatherlink.com 1.10,2013-05-12 10:16:00,
2013-05-12 06:31:00,36.2,32.0,30.10,WNW,299,1.0,4.0,83,0.00,,,0.00,0,weatherlink.com 1.10,2013-05-12 10:31:00,
2013-05-12 06:46:00,36.3,32.0,30.10,West,267,0.0,2.0,83,0.00,,,0.00,7,weatherlink.com 1.10,2013-05-12 10:46:00,
2013-05-12 07:01:00,36.8,32.0,30.10,West,268,0.0,4.0,82,0.00,,,0.00,14,weatherlink.com 1.10,2013-05-12 11:01:00,
2013-05-12 07:16:00,37.3,32.0,30.11,West,268,0.0,4.0,81,0.00,,,0.00,21,weatherlink.com 1.10,2013-05-12 11:16:00,
2013-05-12 07:31:00,37.6,32.0,30.11,WNW,300,0.0,4.0,81,0.00,,,0.00,26,weatherlink.com 1.10,2013-05-12 11:31:00,
2013-05-12 07:46:00,38.2,33.0,30.12,West,273,2.0,7.0,80,0.00,,,0.00,32,weatherlink.com 1.10,2013-05-12 11:46:00,
2013-05-12 08:01:00,38.7,33.0,30.12,NNW,331,1.0,6.0,80,0.00,,,0.00,37,weatherlink.com 1.10,2013-05-12 12:01:00,
2013-05-12 08:16:00,39.6,33.0,30.12,NNW,338,0.0,8.0,78,0.00,,,0.00,40,weatherlink.com 1.10,2013-05-12 12:16:00,
2013-05-12 08:32:00,40.5,34.0,30.13,West,275,1.0,7.0,76,0.00,,,0.00,76,weatherlink.com 1.10,2013-05-12 12:32:00,
2013-05-12 08:47:00,41.8,34.0,30.14,WNW,283,1.0,8.0,74,0.00,,,0.00,364,weatherlink.com 1.10,2013-05-12 12:47:00,
2013-05-12 09:02:00,43.9,35.0,30.14,SSE,148,5.0,6.0,70,0.00,,,0.00,422,weatherlink.com 1.10,2013-05-12 13:02:00,
2013-05-12 09:17:00,45.2,34.0,30.14,SE,142,0.0,9.0,65,0.00,,,0.00,476,weatherlink.com 1.10,2013-05-12 13:17:00,
2013-05-12 09:32:00,46.3,32.0,30.14,West,281,0.0,8.0,58,0.00,,,0.00,533,weatherlink.com 1.10,2013-05-12 13:32:00,
2013-05-12 09:47:00,47.1,34.0,30.15,ENE,78,0.0,7.0,60,0.00,,,0.00,587,weatherlink.com 1.10,2013-05-12 13:47:00,
2013-05-12 10:02:00,48.3,32.0,30.15,SW,220,6.0,7.0,54,0.00,,,0.00,638,weatherlink.com 1.10,2013-05-12 14:02:00,
2013-05-12 10:17:00,48.8,31.0,30.15,WNW,295,4.0,8.0,51,0.00,,,0.00,693,weatherlink.com 1.10,2013-05-12 14:17:00,
2013-05-12 10:32:00,49.3,31.0,30.14,SW,220,2.0,14.0,50,0.00,,,0.00,731,weatherlink.com 1.10,2013-05-12 14:32:00,
2013-05-12 10:47:00,49.6,30.0,30.15,WSW,246,5.0,11.0,48,0.00,,,0.00,777,weatherlink.com 1.10,2013-05-12 14:47:00,
2013-05-12 11:02:00,49.6,30.0,30.15,North,11,5.0,12.0,48,0.00,,,0.00,814,weatherlink.com 1.10,2013-05-12 15:02:00,
2013-05-12 11:17:00,50.6,31.0,30.15,WSW,243,4.0,9.0,47,0.00,,,0.00,849,weatherlink.com 1.10,2013-05-12 15:17:00,
2013-05-12 11:32:00,50.9,29.0,30.16,WNW,295,5.0,11.0,44,0.00,,,0.00,886,weatherlink.com 1.10,2013-05-12 15:32:00,
2013-05-12 11:47:00,50.9,32.0,30.16,NE,42,2.0,19.0,48,0.00,,,0.00,916,weatherlink.com 1.10,2013-05-12 15:47:00,
2013-05-12 12:02:00,51.9,30.0,30.16,NNW,330,6.0,11.0,44,0.00,,,0.00,942,weatherlink.com 1.10,2013-05-12 16:02:00,
2013-05-12 12:18:00,52.3,33.0,30.16,West,279,9.0,14.0,49,0.00,,,0.00,965,weatherlink.com 1.10,2013-05-12 16:18:00,
2013-05-12 12:33:00,52.3,30.0,30.16,West,263,2.0,13.0,43,0.00,,,0.00,981,weatherlink.com 1.10,2013-05-12 16:33:00,
2013-05-12 12:48:00,52.6,33.0,30.16,WNW,297,2.0,9.0,47,0.00,,,0.00,1027,weatherlink.com 1.10,2013-05-12 16:48:00,
2013-05-12 13:03:00,53.3,31.0,30.16,North,5,7.0,10.0,43,0.00,,,0.00,1018,weatherlink.com 1.10,2013-05-12 17:03:00,
2013-05-12 13:18:00,53.8,32.0,30.16,WSW,240,4.0,11.0,43,0.00,,,0.00,1048,weatherlink.com 1.10,2013-05-12 17:18:00,
2013-05-12 13:33:00,54.5,33.0,30.16,WSW,240,7.0,14.0,44,0.00,,,0.00,1099,weatherlink.com 1.10,2013-05-12 17:33:00,
2013-05-12 13:48:00,54.0,31.0,30.16,West,275,3.0,13.0,42,0.00,,,0.00,211,weatherlink.com 1.10,2013-05-12 17:48:00,
2013-05-12 14:03:00,53.7,33.0,30.16,SW,233,7.0,14.0,46,0.00,,,0.00,1055,weatherlink.com 1.10,2013-05-12 18:03:00,
2013-05-12 14:18:00,54.2,32.0,30.16,WSW,253,0.0,13.0,43,0.00,,,0.00,1062,weatherlink.com 1.10,2013-05-12 18:18:00,
2013-05-12 14:33:00,54.2,31.0,30.15,WSW,253,7.0,18.0,42,0.00,,,0.00,1023,weatherlink.com 1.10,2013-05-12 18:33:00,
2013-05-12 14:48:00,54.9,31.0,30.16,WNW,294,4.0,15.0,41,0.00,,,0.00,1078,weatherlink.com 1.10,2013-05-12 18:48:00,
2013-05-12 15:03:00,55.2,32.0,30.16,WNW,296,8.0,11.0,42,0.00,,,0.00,998,weatherlink.com 1.10,2013-05-12 19:03:00,
2013-05-12 15:18:00,55.4,31.0,30.15,SW,234,1.0,13.0,40,0.00,,,0.00,1000,weatherlink.com 1.10,2013-05-12 19:18:00,
2013-05-12 15:33:00,56.0,31.0,30.15,SW,235,1.0,12.0,38,0.00,,,0.00,622,weatherlink.com 1.10,2013-05-12 19:33:00,
2013-05-12 15:48:00,55.5,31.0,30.15,NNW,329,4.0,11.0,40,0.00,,,0.00,302,weatherlink.com 1.10,2013-05-12 19:48:00,
2013-05-12 16:03:00,54.9,30.0,30.15,WSW,247,4.0,11.0,39,0.00,,,0.00,276,weatherlink.com 1.10,2013-05-12 20:03:00,
2013-05-12 16:18:00,56.0,32.0,30.14,East,79,3.0,14.0,41,0.00,,,0.00,893,weatherlink.com 1.10,2013-05-12 20:18:00,
2013-05-12 16:33:00,56.4,32.0,30.14,West,262,3.0,7.0,40,0.00,,,0.00,863,weatherlink.com 1.10,2013-05-12 20:33:00,
2013-05-12 16:48:00,55.9,30.0,30.14,SW,221,4.0,10.0,37,0.00,,,0.00,199,weatherlink.com 1.10,2013-05-12 20:48:00,
2013-05-12 17:03:00,55.1,29.0,30.14,NW,313,1.0,14.0,37,0.00,,,0.00,752,weatherlink.com 1.10,2013-05-12 21:03:00,
2013-05-12 17:18:00,55.8,30.0,30.13,WSW,250,3.0,12.0,37,0.00,,,0.00,682,weatherlink.com 1.10,2013-05-12 21:18:00,
2013-05-12 17:33:00,55.8,31.0,30.13,WSW,241,2.0,13.0,39,0.00,,,0.00,640,weatherlink.com 1.10,2013-05-12 21:33:00,
2013-05-12 17:48:00,55.9,30.0,30.13,WSW,248,3.0,13.0,38,0.00,,,0.00,594,weatherlink.com 1.10,2013-05-12 21:48:00,
2013-05-12 18:03:00,56.2,31.0,30.13,SW,235,11.0,12.0,39,0.00,,,0.00,538,weatherlink.com 1.10,2013-05-12 22:03:00,
2013-05-12 18:18:00,55.3,29.0,30.13,WNW,290,5.0,15.0,37,0.00,,,0.00,125,weatherlink.com 1.10,2013-05-12 22:18:00,
2013-05-12 18:33:00,53.9,33.0,30.12,WNW,285,1.0,6.0,45,0.00,,,0.00,148,weatherlink.com 1.10,2013-05-12 22:33:00,
2013-05-12 18:48:00,55.1,32.0,30.12,West,275,1.0,7.0,41,0.00,,,0.00,366,weatherlink.com 1.10,2013-05-12 22:48:00,
2013-05-12 19:03:00,54.6,32.0,30.12,WSW,244,1.0,7.0,42,0.00,,,0.00,318,weatherlink.com 1.10,2013-05-12 23:03:00,
2013-05-12 19:18:00,53.8,32.0,30.12,North,360,0.0,6.0,43,0.00,,,0.00,239,weatherlink.com 1.10,2013-05-12 23:18:00,
2013-05-12 19:33:00,54.4,30.0,30.12,NW,309,0.0,7.0,40,0.00,,,0.00,174,weatherlink.com 1.10,2013-05-12 23:33:00,
2013-05-12 19:48:00,53.4,31.0,30.12,SW,236,1.0,10.0,43,0.00,,,0.00,42,weatherlink.com 1.10,2013-05-12 23:48:00,
2013-05-12 20:03:00,52.1,31.0,30.12,West,264,1.0,5.0,44,0.00,,,0.00,33,weatherlink.com 1.10,2013-05-13 00:03:00,
2013-05-12 20:18:00,51.2,30.0,30.12,West,268,0.0,4.0,44,0.00,,,0.00,23,weatherlink.com 1.10,2013-05-13 00:18:00,
2013-05-12 20:33:00,50.4,31.0,30.13,West,268,0.0,1.0,47,0.00,,,0.00,11,weatherlink.com 1.10,2013-05-13 00:33:00,
2013-05-12 20:48:00,49.1,33.0,30.13,West,268,0.0,1.0,55,0.00,,,0.00,5,weatherlink.com 1.10,2013-05-13 00:48:00,
2013-05-12 21:03:00,47.6,34.0,30.13,West,268,0.0,1.0,60,0.00,,,0.00,0,weatherlink.com 1.10,2013-05-13 01:03:00,
2013-05-12 21:18:00,46.8,33.0,30.14,West,268,0.0,0.0,58,0.00,,,0.00,0,weatherlink.com 1.10,2013-05-13 01:18:00,
2013-05-12 21:33:00,46.2,32.0,30.14,West,268,0.0,2.0,59,0.00,,,0.00,0,weatherlink.com 1.10,2013-05-13 01:33:00,
2013-05-12 21:48:00,45.4,32.0,30.15,West,268,0.0,1.0,60,0.00,,,0.00,0,weatherlink.com 1.10,2013-05-13 01:48:00,
2013-05-12 22:03:00,45.0,32.0,30.15,West,268,0.0,1.0,61,0.00,,,0.00,0,weatherlink.com 1.10,2013-05-13 02:03:00,
2013-05-12 22:18:00,44.6,32.0,30.16,West,268,0.0,1.0,61,0.00,,,0.00,0,weatherlink.com 1.10,2013-05-13 02:18:00,
2013-05-12 22:33:00,44.5,32.0,30.16,West,268,0.0,0.0,61,0.00,,,0.00,0,weatherlink.com 1.10,2013-05-13 02:33:00,
2013-05-12 22:48:00,44.4,32.0,30.16,West,268,0.0,1.0,61,0.00,,,0.00,0,weatherlink.com 1.10,2013-05-13 02:48:00,
2013-05-12 23:03:00,44.1,31.0,30.16,West,268,0.0,1.0,61,0.00,,,0.00,0,weatherlink.com 1.10,2013-05-13 03:03:00,
2013-05-12 23:18:00,43.7,31.0,30.17,West,268,0.0,0.0,61,0.00,,,0.00,0,weatherlink.com 1.10,2013-05-13 03:18:00,
2013-05-12 23:33:00,43.3,31.0,30.17,West,268,0.0,0.0,62,0.00,,,0.00,0,weatherlink.com 1.10,2013-05-13 03:33:00,
2013-05-12 23:48:00,43.1,32.0,30.17,West,268,0.0,1.0,65,0.00,,,0.00,0,weatherlink.com 1.10,2013-05-13 03:48:00,